AAL6290 KLAX-KPDX

Flight info

Callsign AAL6290
Flight time 2h 4m
Altitude 34000
Route LADYJ4 CSTRO SHIMR LMT MOXEE TMBRS4
Aircraft A321/M-SDE3FGHIRWY/LB1

Departure

Time 2026-04-23 14:45
Airport Los Angeles International Airport (KLAX)

Arrival

Time 2026-04-23 16:49
Airport Portland International Airport (KPDX)
Time Latitude Longitude Altitude Speed Heading
2026-04-23 14:21 33.94143 -118.40138 124 ft 0 kts 275°
2026-04-23 14:33 33.94147 -118.40139 121 ft 3 kts 306°
2026-04-23 14:33 33.94145 -118.40127 121 ft 2 kts 260°
2026-04-23 14:33 33.94150 -118.40105 122 ft 3 kts 231°
2026-04-23 14:34 33.94164 -118.40091 122 ft 3 kts 195°
2026-04-23 14:34 33.94179 -118.40089 122 ft 1 kts 175°
2026-04-23 14:34 33.94184 -118.40089 123 ft 0 kts 175°
2026-04-23 14:37 33.94183 -118.40089 123 ft 0 kts 175°
2026-04-23 14:38 33.94182 -118.40089 125 ft 1 kts 175°
2026-04-23 14:38 33.94152 -118.40086 124 ft 8 kts 175°
2026-04-23 14:38 33.94079 -118.40076 124 ft 11 kts 172°
2026-04-23 14:38 33.94045 -118.40070 123 ft 0 kts 172°
2026-04-23 14:39 33.94029 -118.40068 124 ft 5 kts 172°
2026-04-23 14:39 33.93977 -118.40060 124 ft 12 kts 173°
2026-04-23 14:39 33.93898 -118.40032 123 ft 12 kts 142°
2026-04-23 14:40 33.93884 -118.39939 121 ft 12 kts 81°
2026-04-23 14:40 33.93896 -118.39830 122 ft 14 kts 84°
2026-04-23 14:40 33.93908 -118.39702 126 ft 17 kts 83°
2026-04-23 14:40 33.93922 -118.39554 126 ft 19 kts 83°
2026-04-23 14:41 33.93940 -118.39396 126 ft 19 kts 83°
2026-04-23 14:41 33.93957 -118.39236 124 ft 19 kts 83°
2026-04-23 14:41 33.93974 -118.39073 126 ft 20 kts 83°
2026-04-23 14:41 33.93991 -118.38908 125 ft 20 kts 83°
2026-04-23 14:42 33.94009 -118.38741 123 ft 21 kts 83°
2026-04-23 14:42 33.94025 -118.38569 125 ft 21 kts 86°
2026-04-23 14:42 33.94041 -118.38398 121 ft 21 kts 83°
2026-04-23 14:42 33.94060 -118.38225 125 ft 21 kts 83°
2026-04-23 14:43 33.94075 -118.38065 125 ft 10 kts 83°
2026-04-23 14:43 33.94073 -118.38033 125 ft 0 kts 104°
2026-04-23 14:44 33.94071 -118.38028 125 ft 3 kts 110°
2026-04-23 14:44 33.94029 -118.37999 124 ft 11 kts 170°
2026-04-23 14:44 33.93979 -118.38091 125 ft 20 kts 262°
2026-04-23 14:45 33.93931 -118.38526 126 ft 86 kts 263°
2026-04-23 14:45 33.93832 -118.39497 126 ft 145 kts 263°
2026-04-23 14:45 33.93694 -118.40863 355 ft 172 kts 263°
2026-04-23 14:45 33.93549 -118.42335 765 ft 192 kts 263°
2026-04-23 14:46 33.93373 -118.44066 980 ft 222 kts 263°
2026-04-23 14:46 33.93177 -118.46016 1384 ft 247 kts 263°
2026-04-23 14:46 33.92983 -118.48123 2108 ft 257 kts 264°
2026-04-23 14:46 33.92802 -118.50279 2920 ft 260 kts 266°
2026-04-23 14:47 33.92626 -118.52456 3616 ft 262 kts 266°
2026-04-23 14:47 33.92448 -118.54659 4293 ft 265 kts 267°
2026-04-23 14:47 33.92267 -118.56886 4964 ft 269 kts 267°
2026-04-23 14:47 33.92098 -118.59139 5617 ft 271 kts 271°
2026-04-23 14:48 33.92377 -118.61359 6250 ft 269 kts 292°
2026-04-23 14:48 33.93289 -118.63309 6863 ft 268 kts 312°
2026-04-23 14:48 33.94708 -118.64746 7482 ft 268 kts 330°
2026-04-23 14:48 33.96350 -118.65820 8107 ft 270 kts 331°
2026-04-23 14:49 33.98016 -118.66884 8716 ft 273 kts 335°
2026-04-23 14:49 33.99842 -118.67540 9318 ft 277 kts 349°
2026-04-23 14:49 34.01787 -118.67582 9927 ft 282 kts 360°
2026-04-23 14:49 34.03773 -118.67448 10299 ft 294 kts 359°
2026-04-23 14:50 34.05879 -118.67318 10424 ft 313 kts 359°
2026-04-23 14:50 34.08069 -118.67116 10701 ft 326 kts
2026-04-23 14:50 34.10317 -118.66587 11181 ft 332 kts
2026-04-23 14:50 34.12596 -118.66047 11707 ft 335 kts
2026-04-23 14:51 34.14901 -118.65505 12236 ft 339 kts
2026-04-23 14:51 34.17223 -118.64958 12767 ft 342 kts
2026-04-23 14:51 34.19567 -118.64401 13295 ft 345 kts
2026-04-23 14:51 34.21929 -118.63841 13809 ft 348 kts
2026-04-23 14:52 34.24325 -118.63527 14270 ft 344 kts 354°
2026-04-23 14:52 34.26690 -118.63771 14715 ft 340 kts 343°
2026-04-23 14:52 34.29020 -118.64311 15184 ft 342 kts 343°
2026-04-23 14:52 34.30575 -118.64670 15498 ft 344 kts 343°
2026-04-23 14:53 34.32939 -118.65212 15944 ft 347 kts 343°
2026-04-23 14:53 34.36099 -118.65931 16579 ft 350 kts 343°
2026-04-23 14:53 34.38510 -118.66477 16946 ft 355 kts 343°
2026-04-23 14:53 34.40947 -118.67029 17422 ft 357 kts 343°
2026-04-23 14:54 34.42606 -118.67405 17735 ft 358 kts 343°
2026-04-23 14:54 34.45074 -118.67938 18190 ft 362 kts 344°
2026-04-23 14:54 34.47535 -118.68427 18583 ft 365 kts 344°
2026-04-23 14:54 34.50054 -118.68906 18969 ft 368 kts 344°
2026-04-23 14:55 34.52595 -118.69384 19331 ft 370 kts 344°
2026-04-23 14:55 34.55148 -118.69867 19732 ft 372 kts 344°
2026-04-23 14:55 34.57719 -118.70358 20113 ft 375 kts 344°
2026-04-23 14:55 34.60304 -118.70860 20491 ft 378 kts 344°
2026-04-23 14:56 34.62904 -118.71366 20945 ft 379 kts 344°
2026-04-23 14:56 34.65511 -118.71876 21328 ft 381 kts 344°
2026-04-23 14:56 34.68135 -118.72391 21678 ft 383 kts 344°
2026-04-23 14:56 34.70759 -118.72993 22031 ft 381 kts 338°
2026-04-23 14:57 34.73233 -118.74062 22352 ft 376 kts 328°
2026-04-23 14:57 34.75525 -118.75571 22684 ft 374 kts 324°
2026-04-23 14:57 34.77794 -118.77147 23057 ft 376 kts 324°
2026-04-23 14:57 34.80077 -118.78723 23393 ft 378 kts 324°
2026-04-23 14:58 34.82342 -118.80277 23717 ft 380 kts 324°
2026-04-23 14:58 34.84654 -118.81858 24000 ft 382 kts 324°
2026-04-23 14:58 34.86974 -118.83443 24291 ft 384 kts 324°
2026-04-23 14:58 34.89306 -118.85036 24573 ft 385 kts 324°
2026-04-23 14:59 34.91648 -118.86641 24854 ft 386 kts 324°
2026-04-23 14:59 34.93993 -118.88254 25136 ft 388 kts 324°
2026-04-23 14:59 34.96347 -118.89879 25410 ft 390 kts 324°
2026-04-23 14:59 34.98713 -118.91516 25674 ft 391 kts 324°
2026-04-23 15:00 35.01082 -118.93158 26011 ft 392 kts 324°
2026-04-23 15:00 35.03459 -118.94802 26313 ft 393 kts 324°
2026-04-23 15:00 35.05842 -118.96453 26550 ft 395 kts 324°
2026-04-23 15:00 35.08242 -118.98113 26807 ft 397 kts 324°
2026-04-23 15:01 35.10654 -118.99781 27073 ft 399 kts 324°
2026-04-23 15:01 35.13072 -119.01455 27337 ft 400 kts 324°
2026-04-23 15:01 35.15501 -119.03138 27595 ft 402 kts 324°
2026-04-23 15:01 35.17942 -119.04828 27858 ft 403 kts 324°
2026-04-23 15:02 35.20385 -119.06520 28138 ft 405 kts 324°
2026-04-23 15:02 35.22840 -119.08217 28408 ft 406 kts 324°
2026-04-23 15:02 35.25303 -119.09926 28652 ft 407 kts 324°
2026-04-23 15:02 35.27770 -119.11646 28895 ft 409 kts 324°
2026-04-23 15:03 35.30245 -119.13373 29133 ft 410 kts 324°
2026-04-23 15:03 35.32697 -119.15085 29376 ft 412 kts 324°
2026-04-23 15:03 35.35191 -119.16826 29602 ft 413 kts 324°
2026-04-23 15:03 35.37698 -119.18574 29839 ft 415 kts 324°
2026-04-23 15:04 35.40218 -119.20329 30099 ft 416 kts 324°
2026-04-23 15:04 35.42741 -119.22087 30320 ft 418 kts 324°
2026-04-23 15:04 35.45416 -119.23586 30510 ft 427 kts 334°
2026-04-23 15:04 35.48303 -119.24581 30698 ft 434 kts 339°
2026-04-23 15:05 35.51244 -119.25449 30857 ft 436 kts 339°
2026-04-23 15:05 35.54197 -119.26324 31032 ft 437 kts 339°
2026-04-23 15:05 35.57160 -119.27206 31222 ft 438 kts 339°
2026-04-23 15:05 35.60089 -119.28083 31437 ft 439 kts 339°
2026-04-23 15:06 35.63062 -119.28976 31610 ft 440 kts 339°
2026-04-23 15:06 35.66035 -119.29869 31781 ft 440 kts 339°
2026-04-23 15:06 35.69007 -119.30761 32039 ft 439 kts 339°
2026-04-23 15:06 35.71976 -119.31649 32279 ft 438 kts 339°
2026-04-23 15:07 35.74933 -119.32535 32511 ft 437 kts 339°
2026-04-23 15:07 35.77890 -119.33422 32740 ft 436 kts 339°
2026-04-23 15:07 35.80835 -119.34306 33006 ft 435 kts 339°
2026-04-23 15:07 35.83771 -119.35190 33234 ft 434 kts 339°
2026-04-23 15:08 35.86705 -119.36074 33449 ft 433 kts 339°
2026-04-23 15:08 35.89630 -119.36958 33664 ft 433 kts 339°
2026-04-23 15:08 35.92553 -119.37840 33882 ft 432 kts 338°
2026-04-23 15:09 35.98381 -119.39596 34209 ft 427 kts 338°
2026-04-23 15:09 36.01224 -119.40443 34196 ft 415 kts 338°
2026-04-23 15:09 36.04020 -119.41280 34192 ft 410 kts 338°
2026-04-23 15:10 36.08618 -119.42679 34196 ft 409 kts 338°
2026-04-23 15:10 36.15066 -119.44648 34196 ft 408 kts 338°
2026-04-23 15:11 36.20587 -119.46327 34197 ft 408 kts 337°
2026-04-23 15:11 36.26061 -119.47986 34203 ft 408 kts 337°
2026-04-23 15:12 36.31584 -119.49670 34210 ft 408 kts 337°
2026-04-23 15:12 36.37101 -119.51355 34226 ft 408 kts 337°
2026-04-23 15:13 36.42614 -119.53035 34240 ft 408 kts 337°
2026-04-23 15:13 36.48124 -119.54722 34211 ft 407 kts 337°
2026-04-23 15:14 36.53627 -119.56416 34208 ft 407 kts 337°
2026-04-23 15:14 36.59090 -119.58095 34229 ft 407 kts 337°
2026-04-23 15:15 36.64594 -119.59780 34227 ft 407 kts 337°
2026-04-23 15:15 36.70093 -119.61461 34223 ft 406 kts 337°
2026-04-23 15:16 36.75572 -119.63157 34220 ft 406 kts 337°
2026-04-23 15:16 36.81057 -119.64853 34218 ft 406 kts 337°
2026-04-23 15:17 36.86542 -119.66545 34210 ft 406 kts 337°
2026-04-23 15:17 36.92026 -119.68245 34205 ft 406 kts 337°
2026-04-23 15:18 36.97502 -119.69942 34236 ft 406 kts 336°
2026-04-23 15:18 37.02985 -119.71645 34227 ft 406 kts 336°
2026-04-23 15:19 37.08465 -119.73349 34208 ft 405 kts 336°
2026-04-23 15:19 37.13931 -119.75050 34198 ft 405 kts 336°
2026-04-23 15:20 37.18471 -119.76464 34220 ft 404 kts 336°
2026-04-23 15:20 37.24811 -119.78441 34203 ft 403 kts 336°
2026-04-23 15:21 37.30263 -119.80147 34200 ft 403 kts 336°
2026-04-23 15:21 37.35709 -119.81853 34195 ft 403 kts 336°
2026-04-23 15:22 37.41142 -119.83550 34164 ft 400 kts 336°
2026-04-23 15:22 37.46553 -119.85249 34162 ft 401 kts 336°
2026-04-23 15:23 37.51964 -119.86956 34160 ft 401 kts 336°
2026-04-23 15:23 37.57386 -119.88667 34201 ft 401 kts 336°
2026-04-23 15:24 37.62795 -119.90372 34195 ft 400 kts 336°
2026-04-23 15:24 37.68165 -119.92071 34185 ft 399 kts 336°
2026-04-23 15:25 37.73550 -119.93767 34182 ft 399 kts 336°
2026-04-23 15:25 37.78907 -119.95472 34172 ft 394 kts 336°
2026-04-23 15:26 37.84225 -119.97162 34160 ft 394 kts 336°
2026-04-23 15:26 37.89548 -119.98858 34162 ft 394 kts 336°
2026-04-23 15:27 37.94879 -120.00551 34191 ft 394 kts 336°
2026-04-23 15:27 38.00208 -120.02244 34187 ft 395 kts 336°
2026-04-23 15:28 38.05530 -120.03938 34186 ft 394 kts 336°
2026-04-23 15:28 38.10822 -120.05631 34182 ft 394 kts 336°
2026-04-23 15:29 38.16149 -120.07341 34181 ft 394 kts 337°
2026-04-23 15:29 38.21464 -120.09050 34175 ft 394 kts 337°
2026-04-23 15:30 38.26760 -120.10876 34169 ft 392 kts 334°
2026-04-23 15:30 38.31944 -120.12948 34181 ft 390 kts 334°
2026-04-23 15:31 38.37089 -120.15044 34183 ft 391 kts 334°
2026-04-23 15:31 38.42291 -120.17115 34165 ft 391 kts 334°
2026-04-23 15:32 38.47493 -120.19160 34167 ft 391 kts 334°
2026-04-23 15:32 38.52695 -120.21210 34192 ft 391 kts 335°
2026-04-23 15:33 38.57905 -120.23268 34184 ft 391 kts 335°
2026-04-23 15:33 38.63103 -120.25329 34183 ft 391 kts 335°
2026-04-23 15:34 38.68305 -120.27387 34186 ft 391 kts 334°
2026-04-23 15:34 38.73505 -120.29457 34174 ft 391 kts 334°
2026-04-23 15:35 38.78663 -120.31512 34171 ft 391 kts 334°
2026-04-23 15:35 38.83857 -120.33582 34172 ft 391 kts 334°
2026-04-23 15:36 38.89048 -120.35654 34199 ft 390 kts 335°
2026-04-23 15:36 38.94228 -120.37725 34195 ft 390 kts 335°
2026-04-23 15:37 38.99402 -120.39792 34182 ft 389 kts 335°
2026-04-23 15:37 39.03699 -120.41516 34187 ft 389 kts 335°
2026-04-23 15:38 39.09727 -120.43942 34196 ft 388 kts 335°
2026-04-23 15:38 39.14878 -120.46021 34199 ft 388 kts 335°
2026-04-23 15:39 39.20032 -120.48093 34199 ft 388 kts 335°
2026-04-23 15:39 39.25179 -120.50161 34217 ft 387 kts 336°
2026-04-23 15:40 39.30314 -120.52233 34210 ft 386 kts 335°
2026-04-23 15:40 39.35436 -120.54309 34207 ft 386 kts 335°
2026-04-23 15:41 39.40552 -120.56383 34192 ft 385 kts 336°
2026-04-23 15:41 39.44812 -120.58115 34190 ft 386 kts 336°
2026-04-23 15:42 39.50778 -120.60543 34194 ft 387 kts 336°
2026-04-23 15:42 39.55084 -120.62295 34189 ft 387 kts 336°
2026-04-23 15:43 39.60230 -120.64391 34184 ft 388 kts 337°
2026-04-23 15:43 39.65385 -120.66500 34180 ft 389 kts 337°
2026-04-23 15:44 39.70522 -120.68595 34179 ft 390 kts 337°
2026-04-23 15:44 39.75709 -120.70722 34185 ft 392 kts 338°
2026-04-23 15:45 39.80914 -120.72864 34182 ft 393 kts 338°
2026-04-23 15:45 39.86142 -120.75013 34183 ft 394 kts 338°
2026-04-23 15:46 39.91387 -120.77171 34208 ft 395 kts 338°
2026-04-23 15:46 39.96648 -120.79337 34197 ft 397 kts 338°
2026-04-23 15:47 40.01923 -120.81515 34204 ft 398 kts 338°
2026-04-23 15:47 40.07207 -120.83702 34205 ft 399 kts 338°
2026-04-23 15:48 40.12503 -120.85896 34225 ft 400 kts 338°
2026-04-23 15:48 40.17808 -120.88098 34226 ft 400 kts 338°
2026-04-23 15:49 40.23079 -120.90285 34229 ft 400 kts 338°
2026-04-23 15:49 40.28417 -120.92510 34240 ft 400 kts 339°
2026-04-23 15:50 40.33732 -120.94732 34235 ft 401 kts 339°
2026-04-23 15:50 40.39017 -120.96942 34235 ft 401 kts 338°
2026-04-23 15:51 40.44345 -120.99168 34241 ft 401 kts 338°
2026-04-23 15:51 40.49662 -121.01392 34253 ft 401 kts 338°
2026-04-23 15:52 40.54977 -121.03608 34253 ft 401 kts 338°
2026-04-23 15:52 40.60290 -121.05845 34259 ft 401 kts 339°
2026-04-23 15:53 40.65616 -121.08096 34245 ft 402 kts 339°
2026-04-23 15:53 40.70950 -121.10352 34240 ft 403 kts 338°
2026-04-23 15:54 40.76261 -121.12603 34254 ft 403 kts 339°
2026-04-23 15:54 40.81614 -121.14869 34233 ft 405 kts 339°
2026-04-23 15:55 40.86984 -121.17139 34221 ft 405 kts 339°
2026-04-23 15:55 40.92366 -121.19421 34223 ft 406 kts 339°
2026-04-23 15:56 40.97752 -121.21709 34223 ft 406 kts 339°
2026-04-23 15:56 41.03141 -121.24000 34219 ft 407 kts 339°
2026-04-23 15:57 41.08531 -121.26306 34224 ft 407 kts 339°
2026-04-23 15:57 41.13884 -121.28603 34242 ft 406 kts 338°
2026-04-23 15:58 41.19265 -121.30911 34234 ft 406 kts 338°
2026-04-23 15:58 41.24637 -121.33215 34240 ft 406 kts 338°
2026-04-23 15:59 41.30011 -121.35524 34255 ft 406 kts 338°
2026-04-23 15:59 41.35386 -121.37842 34261 ft 406 kts 338°
2026-04-23 16:00 41.40760 -121.40163 34264 ft 405 kts 338°
2026-04-23 16:00 41.46124 -121.42474 34270 ft 405 kts 339°
2026-04-23 16:01 41.51482 -121.44791 34265 ft 404 kts 338°
2026-04-23 16:01 41.56795 -121.47097 34258 ft 404 kts 338°
2026-04-23 16:02 41.62138 -121.49420 34255 ft 404 kts 339°
2026-04-23 16:02 41.67486 -121.51749 34254 ft 404 kts 339°
2026-04-23 16:03 41.72828 -121.54083 34268 ft 404 kts 338°
2026-04-23 16:03 41.78178 -121.56423 34257 ft 404 kts 339°
2026-04-23 16:04 41.83521 -121.58755 34265 ft 403 kts 339°
2026-04-23 16:04 41.88820 -121.61071 34261 ft 403 kts 339°
2026-04-23 16:05 41.93278 -121.63029 34257 ft 402 kts 339°
2026-04-23 16:05 41.99456 -121.65748 34262 ft 402 kts 339°
2026-04-23 16:06 42.04766 -121.68086 34262 ft 401 kts 339°
2026-04-23 16:06 42.10054 -121.70423 34257 ft 400 kts 339°
2026-04-23 16:07 42.15341 -121.72762 34256 ft 400 kts 338°
2026-04-23 16:07 42.20579 -121.75264 34257 ft 399 kts 336°
2026-04-23 16:08 42.25774 -121.77900 34271 ft 399 kts 336°
2026-04-23 16:08 42.30963 -121.80534 34265 ft 398 kts 336°
2026-04-23 16:09 42.36165 -121.83144 34264 ft 398 kts 336°
2026-04-23 16:09 42.41366 -121.85736 34254 ft 398 kts 336°
2026-04-23 16:10 42.46563 -121.88332 34258 ft 398 kts 336°
2026-04-23 16:10 42.51757 -121.90936 34266 ft 398 kts 337°
2026-04-23 16:11 42.56952 -121.93551 34261 ft 398 kts 336°
2026-04-23 16:11 42.62115 -121.96153 34259 ft 398 kts 337°
2026-04-23 16:12 42.67308 -121.98773 34261 ft 398 kts 336°
2026-04-23 16:12 42.72496 -122.01403 34260 ft 398 kts 337°
2026-04-23 16:13 42.77693 -122.04033 34269 ft 398 kts 337°
2026-04-23 16:13 42.85481 -122.07983 34284 ft 398 kts 338°
2026-04-23 16:14 42.90667 -122.10613 34288 ft 397 kts 338°
2026-04-23 16:14 42.95846 -122.13247 34288 ft 397 kts 338°
2026-04-23 16:15 43.01018 -122.15891 34280 ft 397 kts 338°
2026-04-23 16:15 43.06186 -122.18542 34293 ft 396 kts 338°
2026-04-23 16:16 43.11349 -122.21194 34294 ft 396 kts 338°
2026-04-23 16:16 43.16470 -122.23830 34296 ft 396 kts 338°
2026-04-23 16:17 43.21623 -122.26472 34300 ft 395 kts 338°
2026-04-23 16:17 43.26786 -122.29119 34301 ft 395 kts 338°
2026-04-23 16:18 43.31948 -122.31785 34294 ft 395 kts 338°
2026-04-23 16:18 43.37095 -122.34452 34299 ft 395 kts 339°
2026-04-23 16:19 43.42240 -122.37117 34313 ft 395 kts 339°
2026-04-23 16:19 43.47370 -122.39779 34311 ft 394 kts 339°
2026-04-23 16:20 43.52492 -122.42443 34307 ft 393 kts 339°
2026-04-23 16:20 43.57616 -122.45115 34305 ft 393 kts 339°
2026-04-23 16:21 43.62696 -122.47768 34303 ft 393 kts 340°
2026-04-23 16:21 43.67808 -122.50441 34302 ft 393 kts 340°
2026-04-23 16:22 43.72923 -122.53116 34302 ft 393 kts 340°
2026-04-23 16:22 43.78033 -122.55792 34305 ft 393 kts 340°
2026-04-23 16:23 43.83179 -122.58495 34300 ft 400 kts 341°
2026-04-23 16:23 43.88470 -122.61277 34092 ft 410 kts 340°
2026-04-23 16:24 43.91139 -122.62685 33469 ft 409 kts 340°
2026-04-23 16:24 43.93787 -122.64088 32887 ft 405 kts 340°
2026-04-23 16:24 43.96404 -122.65475 32044 ft 399 kts 340°
2026-04-23 16:24 43.99013 -122.66855 30771 ft 405 kts 340°
2026-04-23 16:25 44.01627 -122.68238 30467 ft 396 kts 340°
2026-04-23 16:25 44.04174 -122.69589 30061 ft 389 kts 339°
2026-04-23 16:25 44.06684 -122.70922 29635 ft 383 kts 339°
2026-04-23 16:25 44.09155 -122.72233 29211 ft 377 kts 340°
2026-04-23 16:26 44.11586 -122.73522 28814 ft 371 kts 339°
2026-04-23 16:26 44.14028 -122.74610 28417 ft 365 kts 348°
2026-04-23 16:26 44.16526 -122.75064 28011 ft 360 kts 358°
2026-04-23 16:26 44.19012 -122.74933 27610 ft 356 kts
2026-04-23 16:27 44.21464 -122.74688 27214 ft 351 kts
2026-04-23 16:27 44.23888 -122.74445 26835 ft 347 kts
2026-04-23 16:27 44.26279 -122.74202 26458 ft 342 kts
2026-04-23 16:27 44.28640 -122.73966 26073 ft 338 kts
2026-04-23 16:28 44.30970 -122.73738 25694 ft 334 kts
2026-04-23 16:28 44.33256 -122.73517 25329 ft 332 kts
2026-04-23 16:28 44.35556 -122.73293 24951 ft 330 kts
2026-04-23 16:28 44.37104 -122.73142 24695 ft 329 kts
2026-04-23 16:29 44.40112 -122.72842 24204 ft 326 kts
2026-04-23 16:29 44.41639 -122.72689 23921 ft 325 kts
2026-04-23 16:29 44.43888 -122.72467 23474 ft 323 kts
2026-04-23 16:29 44.46150 -122.72245 22823 ft 327 kts
2026-04-23 16:30 44.48406 -122.72020 22406 ft 323 kts
2026-04-23 16:30 44.50635 -122.71798 22009 ft 319 kts
2026-04-23 16:30 44.52840 -122.71578 21607 ft 316 kts
2026-04-23 16:30 44.55020 -122.71359 21212 ft 313 kts
2026-04-23 16:31 44.57185 -122.71144 20821 ft 311 kts
2026-04-23 16:31 44.59335 -122.70931 20422 ft 308 kts
2026-04-23 16:31 44.61467 -122.70719 20039 ft 306 kts
2026-04-23 16:31 44.63588 -122.70509 19649 ft 305 kts
2026-04-23 16:32 44.65670 -122.70302 19277 ft 303 kts
2026-04-23 16:32 44.67766 -122.70089 18891 ft 301 kts
2026-04-23 16:32 44.69849 -122.69874 18496 ft 299 kts
2026-04-23 16:32 44.71917 -122.69664 18085 ft 297 kts
2026-04-23 16:33 44.73972 -122.69457 17707 ft 295 kts
2026-04-23 16:33 44.76014 -122.69250 17327 ft 293 kts
2026-04-23 16:33 44.78041 -122.69045 16955 ft 291 kts
2026-04-23 16:33 44.80057 -122.68843 16577 ft 290 kts
2026-04-23 16:34 44.82064 -122.68643 16206 ft 288 kts
2026-04-23 16:34 44.84063 -122.68442 15838 ft 287 kts
2026-04-23 16:34 44.86047 -122.68244 15472 ft 285 kts
2026-04-23 16:34 44.88021 -122.68048 15110 ft 284 kts
2026-04-23 16:35 44.89985 -122.67850 14749 ft 282 kts
2026-04-23 16:35 44.91942 -122.67650 14381 ft 281 kts
2026-04-23 16:35 44.93888 -122.67452 14029 ft 279 kts
2026-04-23 16:35 44.95819 -122.67257 13923 ft 283 kts
2026-04-23 16:36 44.97806 -122.67057 13666 ft 290 kts
2026-04-23 16:36 44.99820 -122.66857 13203 ft 289 kts
2026-04-23 16:36 45.01815 -122.66657 12773 ft 287 kts
2026-04-23 16:36 45.03797 -122.66457 12426 ft 283 kts
2026-04-23 16:37 45.05739 -122.66260 11987 ft 282 kts
2026-04-23 16:37 45.07687 -122.66062 11533 ft 282 kts
2026-04-23 16:37 45.09628 -122.65862 11219 ft 277 kts
2026-04-23 16:37 45.11544 -122.65663 10819 ft 276 kts
2026-04-23 16:38 45.13453 -122.65467 10424 ft 274 kts
2026-04-23 16:38 45.15346 -122.65275 10025 ft 272 kts
2026-04-23 16:38 45.17231 -122.65082 9594 ft 271 kts
2026-04-23 16:38 45.19109 -122.64888 9156 ft 270 kts
2026-04-23 16:39 45.20984 -122.64695 8739 ft 269 kts
2026-04-23 16:39 45.22849 -122.64506 8324 ft 268 kts
2026-04-23 16:39 45.24688 -122.64070 7910 ft 268 kts 16°
2026-04-23 16:39 45.26391 -122.62988 7520 ft 270 kts 30°
2026-04-23 16:40 45.27978 -122.61552 7125 ft 269 kts 30°
2026-04-23 16:40 45.29561 -122.60129 6715 ft 269 kts 30°
2026-04-23 16:40 45.31148 -122.58707 6296 ft 270 kts 30°
2026-04-23 16:40 45.32725 -122.57295 5823 ft 272 kts 31°
2026-04-23 16:41 45.34330 -122.55852 5461 ft 270 kts 31°
2026-04-23 16:41 45.35890 -122.54445 5311 ft 259 kts 32°
2026-04-23 16:41 45.37400 -122.53083 5175 ft 261 kts 32°
2026-04-23 16:41 45.38947 -122.51690 5069 ft 264 kts 32°
2026-04-23 16:42 45.40502 -122.50293 4940 ft 265 kts 32°
2026-04-23 16:42 45.42051 -122.48869 4812 ft 265 kts 37°
2026-04-23 16:42 45.43166 -122.46854 4686 ft 258 kts 72°
2026-04-23 16:42 45.43308 -122.44437 4573 ft 238 kts 106°
2026-04-23 16:43 45.42688 -122.42374 4470 ft 219 kts 120°
2026-04-23 16:43 45.42281 -122.40314 4357 ft 218 kts 94°
2026-04-23 16:43 45.42583 -122.38210 4251 ft 220 kts 64°
2026-04-23 16:43 45.43507 -122.36473 4150 ft 220 kts 48°
2026-04-23 16:44 45.44626 -122.35087 4065 ft 211 kts 29°
2026-04-23 16:44 45.45997 -122.34421 3966 ft 207 kts
2026-04-23 16:44 45.47416 -122.34536 3819 ft 203 kts 343°
2026-04-23 16:44 45.48665 -122.35380 3587 ft 198 kts 321°
2026-04-23 16:45 45.49569 -122.36738 3312 ft 183 kts 300°
2026-04-23 16:45 45.50185 -122.38290 3052 ft 178 kts 296°
2026-04-23 16:45 45.50787 -122.39823 2798 ft 176 kts 297°
2026-04-23 16:45 45.51380 -122.41326 2528 ft 168 kts 297°
2026-04-23 16:46 45.51923 -122.42704 2257 ft 156 kts 297°
2026-04-23 16:46 45.52440 -122.44019 2021 ft 149 kts 296°
2026-04-23 16:46 45.52941 -122.45300 1813 ft 147 kts 296°
2026-04-23 16:46 45.53446 -122.46557 1684 ft 146 kts 298°
2026-04-23 16:47 45.53955 -122.47806 1619 ft 145 kts 296°
2026-04-23 16:47 45.54441 -122.49075 1520 ft 146 kts 296°
2026-04-23 16:47 45.54936 -122.50354 1337 ft 146 kts 296°
2026-04-23 16:47 45.55425 -122.51630 1141 ft 147 kts 298°
2026-04-23 16:48 45.55909 -122.52918 999 ft 147 kts 297°
2026-04-23 16:48 45.56405 -122.54204 807 ft 149 kts 298°
2026-04-23 16:48 45.56913 -122.55476 578 ft 147 kts 297°
2026-04-23 16:48 45.57403 -122.56754 377 ft 147 kts 299°
2026-04-23 16:49 45.57736 -122.57587 217 ft 145 kts 299°
2026-04-23 16:49 45.58372 -122.59213 33 ft 127 kts 299°
2026-04-23 16:49 45.58731 -122.60132 32 ft 82 kts 298°
2026-04-23 16:49 45.58922 -122.60628 32 ft 32 kts 299°
2026-04-23 16:50 45.59017 -122.60872 35 ft 28 kts 299°
2026-04-23 16:50 45.59102 -122.61088 33 ft 29 kts 299°
2026-04-23 16:50 45.59107 -122.61102 33 ft 28 kts 299°
2026-04-23 16:50 45.59193 -122.61313 29 ft 15 kts 301°
2026-04-23 16:51 45.59203 -122.61336 28 ft 1 kts 301°
2026-04-23 16:51 45.59217 -122.61351 28 ft 5 kts 334°
2026-04-23 16:51 45.59271 -122.61339 29 ft 10 kts 24°
2026-04-23 16:51 45.59332 -122.61281 31 ft 12 kts 51°
2026-04-23 16:52 45.59326 -122.61178 31 ft 10 kts 121°
2026-04-23 16:52 45.59299 -122.61112 33 ft 5 kts 119°
2026-04-23 16:52 45.59279 -122.61058 34 ft 11 kts 118°
2026-04-23 16:52 45.59206 -122.60873 33 ft 32 kts 125°
2026-04-23 16:53 45.59093 -122.60607 34 ft 31 kts 131°
2026-04-23 16:53 45.58993 -122.60421 34 ft 16 kts 84°
2026-04-23 16:53 45.59048 -122.60314 33 ft 12 kts 44°
2026-04-23 16:53 45.59111 -122.60225 32 ft 14 kts 45°
2026-04-23 16:54 45.59138 -122.60108 31 ft 12 kts 90°
2026-04-23 16:54 45.59138 -122.59990 29 ft 11 kts 90°
2026-04-23 16:54 45.59122 -122.59890 29 ft 9 kts 125°
2026-04-23 16:54 45.59081 -122.59870 31 ft 4 kts 190°
2026-04-23 16:55 45.59071 -122.59876 31 ft 0 kts 204°
2026-04-23 16:55 45.59054 -122.59887 32 ft 2 kts 208°
2026-04-23 16:55 45.59042 -122.59897 32 ft 5 kts 209°
2026-04-23 16:55 45.59040 -122.59898 30 ft 0 kts 209°